Regional Weather Roundup
Issued by NWS Charleston, SC

Current Version | Previous Version | Text Only | Print | Product List | Glossary Off
Versions: 1 2 3 4 5 6 7 8 9 10 11 12 13 14 15 16 17 18 19 20 21 22 23 24 25 26 27 28 29 30 31 32 33 34 35 36 37 38 39 40 41 42 43 44 45 46 47 48 49 50
000 ASUS42 KCHS 240311 RWRCHS REGIONAL WEATHER ROUNDUP NATIONAL WEATHER SERVICE CHARLESTON SC 1000 PM EST THU FEB 23 2017 NOTE: "FAIR" INDICATES FEW OR NO CLOUDS BELOW 12,000 FEET WITH NO SIGNIFICANT WEATHER AND/OR OBSTRUCTIONS TO VISIBILITY. NOT ALL STATIONS ARE QUALITY CONTROLLED. USE DATA WITH CAUTION... ESPECIALLY DEWPOINT OBSERVATIONS. SCZ027-030-031-034>040-042>050-240400- ...SOUTHEAST SOUTH CAROLINA... CITY SKY/WX TMP DP RH WIND PRES REMARKS N CHARLESTON CLEAR 63 58 83 NE7 29.88R WATERFRONT PRK N/A 64 61 90 N7 29.86R MOUNT PLEASANT FAIR 63 61 94 CALM 29.88R JOHNS ISLAND FAIR 64 61 88 N5 29.88R PINOPOLIS N/A N/A N/A N/A E5 29.79S MONCKS CORNER FAIR 59 57 94 E5 29.89R SUMMERVILLE FAIR 61 59 94 CALM 29.89S BEAUFORT MCAS CLEAR 61 61 100 N6 29.87R BEAUFORT ARPT FAIR 63 61 94 NE7 29.86R HILTON HEAD IS CLEAR 64 63 94 NE6 29.86S WALTERBORO CLEAR 63 59 88 NE3 29.89R ALLENDALE FAIR 63 57 82 CALM 29.88R ...SOUTHERN MIDLANDS AND PEE DEE... CITY SKY/WX TMP DP RH WIND PRES REMARKS GEORGETOWN FAIR 57 55 94 NE7 29.90S KINGSTREE FAIR 59 54 82 CALM 29.90S ORANGEBURG CLEAR 63 56 78 CALM 29.89R BARNWELL FAIR 66 59 77 CALM 29.89R AIKEN FAIR 59 52 77 E3 29.93R MANNING FAIR 55 54 94 MISG 29.90S COLUMBIA CLEAR 62 53 72 CALM 29.89R SUMTER CLEAR 63 55 76 E3 29.88R FLORENCE CLEAR 60 56 86 CALM 29.91R MYRTLE BEACH PTCLDY 64 59 82 E12 29.90F N MYRTLE BEACH PTCLDY 61 58 90 NE5 29.90R $$ GAZ063-065-086>088-099>101-113>116-118-119-134>141-150-240400- ...SOUTHEAST GEORGIA... CITY SKY/WX TMP DP RH WIND PRES REMARKS SAVANNAH ARPT CLEAR 64 59 83 NE6 29.86R HUNTER AAF CLEAR 63 63 100 CALM 29.83R FORT STEWART CLEAR 62 59 90 CALM 29.83R STATESBORO CLEAR 59 32 35 CALM 29.87R SYLVANIA CLEAR N/A N/A N/A E3 29.88R CLAXTON FAIR N/A N/A N/A CALM 29.87R ...CSRA...CENTRAL AND FAR SOUTHEAST GEORGIA... CITY SKY/WX TMP DP RH WIND PRES REMARKS THOMSON CLEAR 58 56 94 CALM 29.93R AUGUSTA-BUSH CLEAR 62 55 77 CALM 29.88R AUGUSTA-DANIEL CLEAR 68 51 54 E6 29.89R SWAINSBORO FAIR 63 59 88 E3 29.89R VIDALIA CLEAR 63 63 100 CALM 29.87R EASTMAN FAIR 60 59 97 CALM 29.90R HAZLEHURST FAIR 65 64 96 CALM 29.86R ALMA CLEAR 60 59 96 CALM 29.85R WAYCROSS CLEAR 66 66 99 CALM 29.85R JESUP FAIR 64 59 82 NE3 29.85R BAXLEY FAIR 63 63 100 CALM 29.86R BRUNSWICK CLEAR 64 63 94 NE7 29.84R SAINT SIMONS PTCLDY 66 61 84 NE13 29.83R $$ SCZ027-028-034-036>038-045-046-048>050-GAZ119-141-240400- ...LAKE AND SUPPLEMENTAL COASTAL OBSERVATIONS... STATION/POSITION TIME TEMP WIND PRES WAVE SWELL AIR SEA DIR/SP/G HT/PER HT/PER/DIR (UTC) (F) (DEG/KT/KT) (MB) (FT/S) (FT/S/D) WINYAH BAY NOT AVBL LAKE MURRAY 0220 65 90/ 2/ 4 1011.9 ACE BASIN NERRS 0145 64 50/ 1 1011.0 FORT PULASKI 0248 65 62 60/ 10/ 12 1011.0R SAPELO ISLAND 0200 66 50/ 11 1010.0 $$ ANZ835-935-AMZ111-154-330-350-352-354-370-450-454-472-240400- ...C-MAN AND BUOY OBSERVATIONS... STATION/POSITION TIME TEMP WIND PRES WAVE SWELL AIR SEA DIR/SP/G HT/PER HT/PER/DIR (UTC) (F) (DEG/KT/KT) (MB) (FT/S) (FT/S/D) BUOY 41004 0150 71 69 60/ 12/ 14 1009.8 9/ 9 8/150/ 9 BUOY 41008 0150 64 62 30/ 14/ 17 1009.1 6/10 5/120/10 FOLLY BEACH CMAN 0200 64 40/ 11/ 12 1011.7R CAPERS NEARSHORE 0208 62 60 40/ 12/ 14 1011.2R FRIPP NEARSHORE 0208 63 61 50/ 12/ 16 1010.5R STATION/POSITION TIME TEMP WIND PRES WAVE SWELL AIR SEA DIR/SP/G HT/PER HT/PER/DIR (UTC) (F) (DEG/KT/KT) (MB) (FT/S) (FT/S/D) 5E ST. MARYS GA 0230 63 N/A 7/10 3/120/11 FRYING PAN BUOY 0250 71 71 110/ 14/ 17 1011.6R 8/ 8 7/150/ 8 BUOY 41025 0250 71 74 140/ 12/ 14 1013.7 6/ 7 5/130/ 7 CAPE LOOKOUT NC 0200 66 120/ 9/ 10 1012.6R BUOY 41002 0150 67 69 100/ 21/ 27 1010.8 10/ 9 7/110/ 9 BUOY 41010 NOT AVBL ST AUGUSTINE FL 0300 66 67 360/ 16/ 17 1008.8R $$

USA.gov is the U.S. government's official web portal to all federal, state and local government web resources and services.